Time,TemperatureF,DewpointF,PressureIn,WindDirection,WindDirectionDegrees,WindSpeedMPH,WindSpeedGustMPH,Humidity,HourlyPrecipIn,Conditions,Clouds,dailyrainin,SoftwareType,DateUTC
2013-05-10 00:04:00,58.0,50.4,30.08,SE,135,0.0,0.0,76,0.00,,,0.00,WUHU216HW,2013-05-10 04:04:00,
2013-05-10 00:09:00,58.0,50.4,30.08,WSW,248,0.0,0.4,76,0.00,,,0.00,WUHU216HW,2013-05-10 04:09:00,
2013-05-10 00:14:00,58.0,50.8,30.08,WSW,248,0.0,0.4,77,0.00,,,0.00,WUHU216HW,2013-05-10 04:14:00,
2013-05-10 00:19:00,57.8,50.2,30.08,WSW,248,0.0,0.0,76,0.00,,,0.00,WUHU216HW,2013-05-10 04:19:00,
2013-05-10 00:24:00,57.6,50.0,30.08,WSW,248,0.7,0.7,76,0.00,,,0.00,WUHU216HW,2013-05-10 04:24:00,
2013-05-10 00:29:00,57.2,50.0,30.08,West,270,0.4,0.7,77,0.00,,,0.00,WUHU216HW,2013-05-10 04:29:00,
2013-05-10 00:34:00,57.2,50.4,30.08,West,270,0.7,0.9,78,0.00,,,0.00,WUHU216HW,2013-05-10 04:34:00,
2013-05-10 00:39:00,56.9,50.0,30.08,West,270,0.9,1.1,78,0.00,,,0.00,WUHU216HW,2013-05-10 04:39:00,
2013-05-10 00:44:00,56.5,50.0,30.08,WSW,248,1.1,1.1,79,0.00,,,0.00,WUHU216HW,2013-05-10 04:44:00,
2013-05-10 00:49:00,56.5,50.0,30.08,WSW,248,0.7,1.1,79,0.00,,,0.00,WUHU216HW,2013-05-10 04:49:00,
2013-05-10 00:54:00,56.2,50.0,30.09,SW,225,0.4,1.1,80,0.00,,,0.00,WUHU216HW,2013-05-10 04:54:00,
2013-05-10 00:59:00,56.2,49.7,30.09,West,270,0.4,0.9,79,0.00,,,0.00,WUHU216HW,2013-05-10 04:59:00,
2013-05-10 01:04:00,56.0,50.2,30.09,West,270,0.0,0.7,81,0.00,,,0.00,WUHU216HW,2013-05-10 05:04:00,
2013-05-10 01:09:00,55.8,49.7,30.09,WSW,248,0.7,0.7,80,0.00,,,0.00,WUHU216HW,2013-05-10 05:09:00,
2013-05-10 01:14:00,55.8,49.7,30.09,West,270,0.4,1.1,80,0.00,,,0.00,WUHU216HW,2013-05-10 05:14:00,
2013-05-10 01:19:00,55.4,49.3,30.09,West,270,0.4,1.1,80,0.00,,,0.00,WUHU216HW,2013-05-10 05:19:00,
2013-05-10 01:24:00,55.1,49.3,30.09,West,270,0.0,0.9,81,0.00,,,0.00,WUHU216HW,2013-05-10 05:24:00,
2013-05-10 01:29:00,55.1,49.3,30.09,West,270,0.0,0.9,81,0.00,,,0.00,WUHU216HW,2013-05-10 05:29:00,
2013-05-10 01:34:00,54.9,49.1,30.08,West,270,0.0,0.4,81,0.00,,,0.00,WUHU216HW,2013-05-10 05:34:00,
2013-05-10 01:39:00,54.7,49.3,30.08,West,270,0.0,0.4,82,0.00,,,0.00,WUHU216HW,2013-05-10 05:39:00,
2013-05-10 01:44:00,54.5,49.1,30.09,West,270,0.0,0.0,82,0.00,,,0.00,WUHU216HW,2013-05-10 05:44:00,
2013-05-10 01:49:00,54.5,49.1,30.08,West,270,0.0,0.0,82,0.00,,,0.00,WUHU216HW,2013-05-10 05:49:00,
2013-05-10 01:54:00,54.5,49.1,30.08,West,270,0.0,0.0,82,0.00,,,0.00,WUHU216HW,2013-05-10 05:54:00,
2013-05-10 01:59:00,54.4,49.3,30.08,WSW,248,0.0,0.4,83,0.00,,,0.00,WUHU216HW,2013-05-10 05:59:00,
2013-05-10 02:04:00,54.2,49.4,30.08,West,270,0.0,0.4,84,0.00,,,0.00,WUHU216HW,2013-05-10 06:04:00,
2013-05-10 02:09:00,53.8,48.8,30.08,West,270,0.0,0.0,83,0.00,,,0.00,WUHU216HW,2013-05-10 06:09:00,
2013-05-10 02:14:00,53.8,48.5,30.08,WSW,248,0.0,0.4,82,0.00,,,0.00,WUHU216HW,2013-05-10 06:14:00,
2013-05-10 02:19:00,53.8,48.5,30.08,WSW,248,0.0,0.4,82,0.00,,,0.00,WUHU216HW,2013-05-10 06:19:00,
2013-05-10 02:24:00,53.6,49.0,30.08,WSW,248,0.0,0.0,84,0.00,,,0.00,WUHU216HW,2013-05-10 06:24:00,
2013-05-10 02:29:00,53.5,48.8,30.08,West,270,0.0,0.0,84,0.00,,,0.00,WUHU216HW,2013-05-10 06:29:00,
2013-05-10 02:34:00,53.1,49.0,30.08,ENE,68,0.0,0.4,86,0.00,,,0.00,WUHU216HW,2013-05-10 06:34:00,
2013-05-10 02:39:00,52.7,48.6,30.08,ESE,113,0.7,0.7,86,0.00,,,0.00,WUHU216HW,2013-05-10 06:39:00,
2013-05-10 02:44:00,52.6,47.9,30.08,ESE,113,0.0,0.7,84,0.00,,,0.00,WUHU216HW,2013-05-10 06:44:00,
2013-05-10 02:49:00,52.6,47.9,30.08,South,180,0.0,0.0,84,0.00,,,0.00,WUHU216HW,2013-05-10 06:49:00,
2013-05-10 02:54:00,52.6,48.2,30.08,South,180,0.0,0.0,85,0.00,,,0.00,WUHU216HW,2013-05-10 06:54:00,
2013-05-10 02:59:00,52.6,48.2,30.07,South,180,0.0,0.0,85,0.00,,,0.00,WUHU216HW,2013-05-10 06:59:00,
2013-05-10 03:04:00,52.4,47.7,30.08,SW,225,0.0,0.0,84,0.00,,,0.00,WUHU216HW,2013-05-10 07:04:00,
2013-05-10 03:09:00,52.6,47.9,30.08,WSW,248,0.0,0.7,84,0.00,,,0.00,WUHU216HW,2013-05-10 07:09:00,
2013-05-10 03:14:00,52.4,48.2,30.08,WSW,248,0.0,0.7,86,0.00,,,0.00,WUHU216HW,2013-05-10 07:14:00,
2013-05-10 03:19:00,52.2,47.8,30.08,WSW,248,0.0,0.0,85,0.00,,,0.00,WUHU216HW,2013-05-10 07:19:00,
2013-05-10 03:24:00,52.2,47.5,30.08,WSW,248,0.0,0.0,84,0.00,,,0.00,WUHU216HW,2013-05-10 07:24:00,
2013-05-10 03:29:00,52.2,47.5,30.08,WSW,248,0.0,0.0,84,0.00,,,0.00,WUHU216HW,2013-05-10 07:29:00,
2013-05-10 03:34:00,52.0,47.9,30.08,WSW,248,0.0,0.0,86,0.00,,,0.00,WUHU216HW,2013-05-10 07:34:00,
2013-05-10 03:39:00,51.8,47.7,30.08,WSW,248,0.0,0.0,86,0.00,,,0.00,WUHU216HW,2013-05-10 07:39:00,
2013-05-10 03:44:00,51.7,47.9,30.08,NW,315,0.0,0.0,87,0.00,,,0.00,WUHU216HW,2013-05-10 07:44:00,
2013-05-10 03:49:00,51.7,47.0,30.08,NW,315,0.0,0.0,84,0.00,,,0.00,WUHU216HW,2013-05-10 07:49:00,
2013-05-10 03:54:00,51.7,47.0,30.08,WNW,293,0.2,0.7,84,0.00,,,0.00,WUHU216HW,2013-05-10 07:54:00,
2013-05-10 03:59:00,51.8,47.4,30.08,West,270,0.7,0.7,85,0.00,,,0.00,WUHU216HW,2013-05-10 07:59:00,
2013-05-10 04:04:00,51.8,47.7,30.08,West,270,0.0,0.7,86,0.00,,,0.00,WUHU216HW,2013-05-10 08:04:00,
2013-05-10 04:09:00,51.8,47.7,30.08,West,270,0.0,0.7,86,0.00,,,0.00,WUHU216HW,2013-05-10 08:09:00,
2013-05-10 04:14:00,51.7,47.9,30.08,WSW,248,0.0,0.0,87,0.00,,,0.00,WUHU216HW,2013-05-10 08:14:00,
2013-05-10 04:19:00,51.7,48.2,30.08,WSW,248,0.0,0.0,88,0.00,,,0.00,WUHU216HW,2013-05-10 08:19:00,
2013-05-10 04:24:00,51.7,48.2,30.08,WSW,248,0.0,0.0,88,0.00,,,0.00,WUHU216HW,2013-05-10 08:24:00,
2013-05-10 04:29:00,51.5,47.7,30.08,WSW,248,0.0,0.0,87,0.00,,,0.00,WUHU216HW,2013-05-10 08:29:00,
2013-05-10 04:34:00,51.7,47.9,30.08,WSW,248,0.0,0.0,87,0.00,,,0.00,WUHU216HW,2013-05-10 08:34:00,
2013-05-10 04:39:00,51.5,48.0,30.07,WSW,248,0.0,0.0,88,0.00,,,0.00,WUHU216HW,2013-05-10 08:39:00,
2013-05-10 04:44:00,51.1,47.6,30.07,WSW,248,0.0,0.0,88,0.00,,,0.00,WUHU216HW,2013-05-10 08:44:00,
2013-05-10 04:49:00,50.9,47.4,30.07,SSW,203,0.0,0.0,88,0.00,,,0.00,WUHU216HW,2013-05-10 08:49:00,
2013-05-10 04:54:00,50.8,47.3,30.07,SSW,203,0.0,0.0,88,0.00,,,0.00,WUHU216HW,2013-05-10 08:54:00,
2013-05-10 04:59:00,50.8,46.6,30.07,West,270,0.0,0.0,86,0.00,,,0.00,WUHU216HW,2013-05-10 08:59:00,
2013-05-10 05:04:00,50.8,46.6,30.07,West,270,0.0,0.0,86,0.00,,,0.00,WUHU216HW,2013-05-10 09:04:00,
2013-05-10 05:09:00,50.6,46.4,30.07,West,270,0.0,0.0,86,0.00,,,0.00,WUHU216HW,2013-05-10 09:09:00,
2013-05-10 05:14:00,50.6,46.4,30.07,West,270,0.0,0.0,86,0.00,,,0.00,WUHU216HW,2013-05-10 09:14:00,
2013-05-10 05:19:00,50.6,46.4,30.07,West,270,0.0,0.0,86,0.00,,,0.00,WUHU216HW,2013-05-10 09:19:00,
2013-05-10 05:24:00,50.6,46.4,30.07,West,270,0.0,0.7,86,0.00,,,0.00,WUHU216HW,2013-05-10 09:24:00,
2013-05-10 05:29:00,50.4,46.6,30.08,West,270,0.0,0.7,87,0.00,,,0.00,WUHU216HW,2013-05-10 09:29:00,
2013-05-10 05:34:00,50.4,46.3,30.08,West,270,0.0,0.0,86,0.00,,,0.00,WUHU216HW,2013-05-10 09:34:00,
2013-05-10 05:39:00,50.2,46.1,30.07,West,270,0.0,0.4,86,0.00,,,0.00,WUHU216HW,2013-05-10 09:39:00,
2013-05-10 05:44:00,50.0,46.3,30.08,West,270,0.0,0.4,87,0.00,,,0.00,WUHU216HW,2013-05-10 09:44:00,
2013-05-10 05:49:00,50.0,45.9,30.08,West,270,0.9,1.1,86,0.00,,,0.00,WUHU216HW,2013-05-10 09:49:00,
2013-05-10 05:54:00,50.2,46.5,30.08,WSW,248,1.1,1.1,87,0.00,,,0.00,WUHU216HW,2013-05-10 09:54:00,
2013-05-10 05:59:00,50.2,46.1,30.08,West,270,0.7,1.1,86,0.00,,,0.00,WUHU216HW,2013-05-10 09:59:00,
2013-05-10 06:04:00,50.0,46.3,30.08,West,270,0.0,0.9,87,0.01,,,0.02,WUHU216HW,2013-05-10 10:04:00,
2013-05-10 06:09:00,49.9,46.1,30.08,West,270,0.4,0.4,87,0.01,,,0.02,WUHU216HW,2013-05-10 10:09:00,
2013-05-10 06:14:00,49.9,46.1,30.07,West,270,0.0,0.4,87,0.01,,,0.02,WUHU216HW,2013-05-10 10:14:00,
2013-05-10 06:19:00,49.9,46.4,30.08,West,270,0.0,0.0,88,0.01,,,0.02,WUHU216HW,2013-05-10 10:19:00,
2013-05-10 06:24:00,49.7,46.3,30.08,West,270,0.0,0.0,88,0.01,,,0.02,WUHU216HW,2013-05-10 10:24:00,
2013-05-10 06:29:00,49.7,46.3,30.08,West,270,0.0,0.0,88,0.01,,,0.02,WUHU216HW,2013-05-10 10:29:00,
2013-05-10 06:34:00,49.7,46.5,30.08,WNW,293,0.0,0.0,89,0.01,,,0.02,WUHU216HW,2013-05-10 10:34:00,
2013-05-10 06:39:00,49.7,45.9,30.08,West,270,0.0,0.0,87,0.01,,,0.02,WUHU216HW,2013-05-10 10:39:00,
2013-05-10 06:44:00,49.7,45.9,30.07,WNW,293,0.0,0.0,87,0.01,,,0.02,WUHU216HW,2013-05-10 10:44:00,
2013-05-10 06:49:00,49.7,46.3,30.08,WNW,293,0.0,0.0,88,0.01,,,0.02,WUHU216HW,2013-05-10 10:49:00,
2013-05-10 06:54:00,50.0,46.5,30.08,West,270,0.0,0.0,88,0.01,,,0.02,WUHU216HW,2013-05-10 10:54:00,
2013-05-10 06:59:00,50.4,47.3,30.08,West,270,0.0,0.0,89,0.01,,,0.02,WUHU216HW,2013-05-10 10:59:00,
2013-05-10 07:04:00,50.8,47.6,30.08,SE,135,0.0,0.9,89,0.00,,,0.02,WUHU216HW,2013-05-10 11:04:00,
2013-05-10 07:09:00,51.3,48.2,30.08,SE,135,0.0,0.9,89,0.00,,,0.02,WUHU216HW,2013-05-10 11:09:00,
2013-05-10 07:14:00,51.5,47.7,30.08,SW,225,0.0,0.4,87,0.00,,,0.02,WUHU216HW,2013-05-10 11:14:00,
2013-05-10 07:19:00,52.2,48.1,30.08,SW,225,0.0,0.4,86,0.00,,,0.02,WUHU216HW,2013-05-10 11:19:00,
2013-05-10 07:24:00,52.6,48.2,30.08,SW,225,0.0,0.0,85,0.00,,,0.02,WUHU216HW,2013-05-10 11:24:00,
2013-05-10 07:29:00,52.9,48.3,30.08,West,270,0.7,0.7,84,0.00,,,0.02,WUHU216HW,2013-05-10 11:29:00,
2013-05-10 07:34:00,53.5,48.8,30.08,West,270,0.9,1.1,84,0.00,,,0.02,WUHU216HW,2013-05-10 11:34:00,
2013-05-10 07:39:00,54.2,49.2,30.08,West,270,0.4,1.1,83,0.00,,,0.02,WUHU216HW,2013-05-10 11:39:00,
2013-05-10 07:44:00,55.1,49.7,30.08,West,270,0.4,0.7,82,0.00,,,0.02,WUHU216HW,2013-05-10 11:44:00,
2013-05-10 07:49:00,55.8,50.1,30.08,West,270,0.7,1.1,81,0.00,,,0.02,WUHU216HW,2013-05-10 11:49:00,
2013-05-10 07:54:00,56.3,50.6,30.08,West,270,0.4,1.1,81,0.00,,,0.02,WUHU216HW,2013-05-10 11:54:00,
2013-05-10 07:59:00,57.4,52.3,30.08,South,180,0.7,0.9,83,0.00,,,0.02,WUHU216HW,2013-05-10 11:59:00,
2013-05-10 08:04:00,60.5,54.4,30.08,ESE,113,0.2,0.7,80,0.00,,,0.02,WUHU216HW,2013-05-10 12:04:00,
2013-05-10 08:09:00,62.3,54.5,30.08,NW,315,0.0,0.7,76,0.00,,,0.02,WUHU216HW,2013-05-10 12:09:00,
2013-05-10 08:15:00,61.9,53.6,30.08,NNW,338,0.7,0.7,74,0.00,,,0.02,WUHU216HW,2013-05-10 12:15:00,
2013-05-10 08:20:00,61.6,53.9,30.08,North,0,0.0,0.7,76,0.00,,,0.02,WUHU216HW,2013-05-10 12:20:00,
2013-05-10 08:25:00,61.7,54.1,30.08,West,270,0.4,0.4,76,0.00,,,0.02,WUHU216HW,2013-05-10 12:25:00,
2013-05-10 08:30:00,63.0,55.3,30.08,West,270,0.9,0.9,76,0.00,,,0.02,WUHU216HW,2013-05-10 12:30:00,
2013-05-10 08:35:00,62.6,54.5,30.08,NW,315,0.7,1.6,75,0.00,,,0.02,WUHU216HW,2013-05-10 12:35:00,
2013-05-10 08:40:00,63.2,55.4,30.08,West,270,0.7,1.6,76,0.00,,,0.02,WUHU216HW,2013-05-10 12:40:00,
2013-05-10 08:45:00,63.5,55.8,30.08,WNW,293,0.7,1.1,76,0.00,,,0.02,WUHU216HW,2013-05-10 12:45:00,
2013-05-10 08:50:00,64.1,56.0,30.08,WSW,248,1.1,1.8,75,0.00,,,0.02,WUHU216HW,2013-05-10 12:50:00,
2013-05-10 08:55:00,65.2,57.4,30.08,SSW,203,0.4,1.8,76,0.00,,,0.02,WUHU216HW,2013-05-10 12:55:00,
2013-05-10 09:00:00,66.2,57.7,30.08,West,270,1.1,1.3,74,0.00,,,0.02,WUHU216HW,2013-05-10 13:00:00,
2013-05-10 09:05:00,66.8,57.9,30.08,WSW,248,0.7,1.3,73,0.00,,,0.02,WUHU216HW,2013-05-10 13:05:00,
2013-05-10 09:10:00,67.3,57.6,30.08,WNW,293,0.0,1.1,71,0.00,,,0.02,WUHU216HW,2013-05-10 13:10:00,
2013-05-10 09:15:00,67.9,58.1,30.08,West,270,0.7,1.1,71,0.00,,,0.02,WUHU216HW,2013-05-10 13:15:00,
2013-05-10 09:20:00,68.4,58.3,30.08,WNW,293,2.0,2.0,70,0.00,,,0.02,WUHU216HW,2013-05-10 13:20:00,
2013-05-10 09:25:00,68.9,58.3,30.08,NW,315,1.1,2.5,69,0.00,,,0.02,WUHU216HW,2013-05-10 13:25:00,
2013-05-10 09:30:00,69.5,58.9,30.08,West,270,1.6,2.5,69,0.00,,,0.02,WUHU216HW,2013-05-10 13:30:00,
2013-05-10 09:35:00,70.0,59.3,30.08,North,0,1.8,2.0,69,0.00,,,0.02,WUHU216HW,2013-05-10 13:35:00,
2013-05-10 09:40:00,70.6,59.1,30.07,WNW,293,1.1,1.8,67,0.00,,,0.02,WUHU216HW,2013-05-10 13:40:00,
2013-05-10 09:45:00,71.3,59.3,30.07,WSW,248,1.1,1.8,66,0.00,,,0.02,WUHU216HW,2013-05-10 13:45:00,
2013-05-10 09:50:00,71.8,60.3,30.07,West,270,0.9,1.8,67,0.00,,,0.02,WUHU216HW,2013-05-10 13:50:00,
2013-05-10 09:55:00,71.5,59.5,30.07,WSW,248,0.9,2.5,66,0.00,,,0.02,WUHU216HW,2013-05-10 13:55:00,
2013-05-10 10:00:00,70.4,58.9,30.07,NW,315,0.0,2.5,67,0.00,,,0.02,WUHU216HW,2013-05-10 14:00:00,
2013-05-10 10:05:00,70.7,59.7,30.07,NW,315,0.9,2.2,68,0.00,,,0.02,WUHU216HW,2013-05-10 14:05:00,
2013-05-10 10:10:00,71.6,60.1,30.07,WNW,293,0.7,2.2,67,0.00,,,0.02,WUHU216HW,2013-05-10 14:10:00,
2013-05-10 10:15:00,72.7,61.1,30.07,SW,225,2.5,2.5,67,0.00,,,0.02,WUHU216HW,2013-05-10 14:15:00,
2013-05-10 10:20:00,72.9,60.8,30.06,WSW,248,1.1,2.5,66,0.00,,,0.02,WUHU216HW,2013-05-10 14:20:00,
2013-05-10 10:25:00,73.4,60.9,30.06,NNW,338,0.7,1.6,65,0.00,,,0.02,WUHU216HW,2013-05-10 14:25:00,
2013-05-10 10:30:00,73.8,61.3,30.06,North,0,0.4,1.6,65,0.00,,,0.02,WUHU216HW,2013-05-10 14:30:00,
2013-05-10 10:35:00,74.2,61.2,30.06,WSW,248,1.3,1.6,64,0.00,,,0.02,WUHU216HW,2013-05-10 14:35:00,
2013-05-10 10:40:00,74.9,61.5,30.06,ENE,68,1.1,1.8,63,0.00,,,0.02,WUHU216HW,2013-05-10 14:40:00,
2013-05-10 10:45:00,74.7,60.9,30.05,NW,315,2.0,2.5,62,0.00,,,0.02,WUHU216HW,2013-05-10 14:45:00,
2013-05-10 10:50:00,74.7,61.3,30.05,WSW,248,1.1,2.5,63,0.00,,,0.02,WUHU216HW,2013-05-10 14:50:00,
2013-05-10 10:55:00,74.9,61.5,30.05,SW,225,0.7,2.5,63,0.00,,,0.02,WUHU216HW,2013-05-10 14:55:00,
2013-05-10 11:00:00,75.1,62.0,30.05,WSW,248,1.6,2.7,64,0.00,,,0.02,WUHU216HW,2013-05-10 15:00:00,
2013-05-10 11:05:00,75.6,62.1,30.05,ENE,68,0.4,2.7,63,0.00,,,0.02,WUHU216HW,2013-05-10 15:05:00,
2013-05-10 11:10:00,76.3,62.8,30.05,WNW,293,1.6,2.7,63,0.00,,,0.02,WUHU216HW,2013-05-10 15:10:00,
2013-05-10 11:15:00,76.3,62.4,30.05,WSW,248,1.1,3.1,62,0.00,,,0.02,WUHU216HW,2013-05-10 15:15:00,
2013-05-10 11:20:00,77.0,61.6,30.05,SSW,203,2.5,3.4,59,0.00,,,0.02,WUHU216HW,2013-05-10 15:20:00,
2013-05-10 11:25:00,77.9,62.5,30.05,North,0,1.8,3.4,59,0.00,,,0.02,WUHU216HW,2013-05-10 15:25:00,
2013-05-10 11:30:00,77.8,62.3,30.04,SSE,158,3.1,3.1,59,0.00,,,0.02,WUHU216HW,2013-05-10 15:30:00,
2013-05-10 11:35:00,78.5,62.0,30.04,ESE,113,0.4,3.4,57,0.00,,,0.02,WUHU216HW,2013-05-10 15:35:00,
2013-05-10 11:40:00,79.0,62.0,30.04,South,180,0.9,3.4,56,0.00,,,0.02,WUHU216HW,2013-05-10 15:40:00,
2013-05-10 11:45:00,79.6,62.5,30.04,East,90,0.7,4.7,56,0.00,,,0.02,WUHU216HW,2013-05-10 15:45:00,
2013-05-10 11:50:00,79.9,62.8,30.04,NW,315,1.1,6.0,56,0.00,,,0.02,WUHU216HW,2013-05-10 15:50:00,
2013-05-10 11:55:00,79.4,61.7,30.04,SW,225,1.3,6.0,55,0.00,,,0.02,WUHU216HW,2013-05-10 15:55:00,
2013-05-10 12:00:00,79.6,62.5,30.03,South,180,3.8,3.8,56,0.00,,,0.02,WUHU216HW,2013-05-10 16:00:00,
2013-05-10 12:05:00,79.9,62.8,30.04,NW,315,2.9,4.0,56,0.00,,,0.02,WUHU216HW,2013-05-10 16:05:00,
2013-05-10 12:10:00,80.3,61.6,30.03,East,90,2.9,5.4,53,0.00,,,0.02,WUHU216HW,2013-05-10 16:10:00,
2013-05-10 12:15:00,79.9,62.3,30.03,SSE,158,2.2,5.4,55,0.00,,,0.02,WUHU216HW,2013-05-10 16:15:00,
2013-05-10 12:20:00,79.4,61.7,30.03,WSW,248,1.3,3.1,55,0.00,,,0.02,WUHU216HW,2013-05-10 16:20:00,
2013-05-10 12:25:00,79.2,61.7,30.03,NW,315,3.6,3.6,55,0.00,,,0.02,WUHU216HW,2013-05-10 16:25:00,
2013-05-10 12:30:00,79.4,61.3,30.03,WNW,293,1.8,3.6,54,0.00,,,0.02,WUHU216HW,2013-05-10 16:30:00,
2013-05-10 12:35:00,79.6,61.9,30.03,WSW,248,1.6,2.5,55,0.00,,,0.02,WUHU216HW,2013-05-10 16:35:00,
2013-05-10 12:40:00,79.6,61.9,30.02,NNW,338,0.7,2.5,55,0.00,,,0.02,WUHU216HW,2013-05-10 16:40:00,
2013-05-10 12:45:00,79.7,61.0,30.02,WSW,248,2.5,2.5,53,0.00,,,0.02,WUHU216HW,2013-05-10 16:45:00,
2013-05-10 12:50:00,79.9,59.7,30.02,NW,315,1.8,2.5,50,0.00,,,0.02,WUHU216HW,2013-05-10 16:50:00,
2013-05-10 12:55:00,80.3,61.6,30.02,NW,315,2.7,2.7,53,0.00,,,0.02,WUHU216HW,2013-05-10 16:55:00,
2013-05-10 13:00:00,81.0,62.2,30.02,East,90,1.8,3.1,53,0.00,,,0.02,WUHU216HW,2013-05-10 17:00:00,
2013-05-10 13:05:00,81.2,61.3,30.02,SE,135,1.1,3.1,51,0.00,,,0.02,WUHU216HW,2013-05-10 17:05:00,
2013-05-10 13:10:00,80.6,60.3,30.01,West,270,2.5,2.5,50,0.00,,,0.02,WUHU216HW,2013-05-10 17:10:00,
2013-05-10 13:15:00,81.0,61.1,30.02,ENE,68,2.9,5.4,51,0.00,,,0.02,WUHU216HW,2013-05-10 17:15:00,
2013-05-10 13:20:00,81.4,60.3,30.02,SSE,158,2.7,5.4,49,0.00,,,0.02,WUHU216HW,2013-05-10 17:20:00,
2013-05-10 13:25:00,81.7,62.3,30.02,WSW,248,1.8,4.7,52,0.00,,,0.02,WUHU216HW,2013-05-10 17:25:00,
2013-05-10 13:30:00,81.7,61.8,30.02,SE,135,6.7,6.7,51,0.00,,,0.02,WUHU216HW,2013-05-10 17:30:00,
2013-05-10 13:35:00,81.9,60.9,30.02,ESE,113,2.7,6.7,49,0.00,,,0.02,WUHU216HW,2013-05-10 17:35:00,
2013-05-10 13:40:00,81.7,60.7,30.01,North,0,4.3,4.9,49,0.00,,,0.02,WUHU216HW,2013-05-10 17:40:00,
2013-05-10 13:45:00,81.5,61.1,30.01,WSW,248,1.8,4.3,50,0.00,,,0.02,WUHU216HW,2013-05-10 17:45:00,
2013-05-10 13:50:00,81.7,60.7,30.01,ENE,68,1.8,2.0,49,0.00,,,0.02,WUHU216HW,2013-05-10 17:50:00,
2013-05-10 13:55:00,82.3,60.6,30.00,SE,135,1.1,4.0,48,0.00,,,0.02,WUHU216HW,2013-05-10 17:55:00,
2013-05-10 14:00:00,82.4,59.5,30.00,ENE,68,1.6,4.0,46,0.00,,,0.02,WUHU216HW,2013-05-10 18:00:00,
2013-05-10 14:05:00,82.4,61.9,30.00,ESE,113,3.1,4.3,50,0.00,,,0.02,WUHU216HW,2013-05-10 18:05:00,
2013-05-10 14:10:00,82.4,60.1,29.99,East,90,2.7,4.3,47,0.00,,,0.02,WUHU216HW,2013-05-10 18:10:00,
2013-05-10 14:15:00,82.8,59.9,29.99,ENE,68,3.4,4.0,46,0.00,,,0.02,WUHU216HW,2013-05-10 18:15:00,
2013-05-10 14:20:00,83.2,59.0,29.99,SE,135,6.7,6.7,44,0.00,,,0.02,WUHU216HW,2013-05-10 18:20:00,
2013-05-10 14:25:00,83.0,57.5,29.98,East,90,5.1,6.7,42,0.00,,,0.02,WUHU216HW,2013-05-10 18:25:00,
2013-05-10 14:30:00,82.4,58.9,29.98,ESE,113,2.5,5.4,45,0.00,,,0.02,WUHU216HW,2013-05-10 18:30:00,
2013-05-10 14:35:00,82.3,56.9,29.98,North,0,1.6,3.4,42,0.00,,,0.02,WUHU216HW,2013-05-10 18:35:00,
2013-05-10 14:40:00,82.3,60.0,29.98,South,180,0.2,3.4,47,0.00,,,0.02,WUHU216HW,2013-05-10 18:40:00,
2013-05-10 14:45:00,82.6,61.5,29.98,NNW,338,2.5,2.5,49,0.00,,,0.02,WUHU216HW,2013-05-10 18:45:00,
2013-05-10 14:50:00,82.8,60.4,29.97,SW,225,2.2,3.4,47,0.00,,,0.02,WUHU216HW,2013-05-10 18:50:00,
2013-05-10 14:55:00,82.6,59.1,29.97,NNE,23,1.8,3.4,45,0.00,,,0.02,WUHU216HW,2013-05-10 18:55:00,
2013-05-10 15:00:00,82.3,60.0,29.97,WSW,248,1.8,3.1,47,0.00,,,0.02,WUHU216HW,2013-05-10 19:00:00,
2013-05-10 15:05:00,82.6,60.8,29.97,ENE,68,3.1,3.1,48,0.00,,,0.02,WUHU216HW,2013-05-10 19:05:00,
2013-05-10 15:10:00,83.2,61.4,29.97,East,90,3.4,6.7,48,0.00,,,0.02,WUHU216HW,2013-05-10 19:10:00,
2013-05-10 15:15:00,83.2,60.1,29.97,SE,135,1.6,6.7,46,0.00,,,0.02,WUHU216HW,2013-05-10 19:15:00,
2013-05-10 15:20:00,82.6,60.8,29.97,ESE,113,3.4,3.6,48,0.00,,,0.02,WUHU216HW,2013-05-10 19:20:00,
2013-05-10 15:25:00,82.3,61.7,29.97,North,0,0.4,3.4,50,0.00,,,0.02,WUHU216HW,2013-05-10 19:25:00,
2013-05-10 15:30:00,82.1,60.4,29.96,SSE,158,2.5,2.5,48,0.00,,,0.02,WUHU216HW,2013-05-10 19:30:00,
2013-05-10 15:35:00,82.6,60.8,29.96,SSW,203,0.7,2.9,48,0.00,,,0.02,WUHU216HW,2013-05-10 19:35:00,
2013-05-10 15:40:00,83.0,60.0,29.95,SSW,203,4.3,4.7,46,0.00,,,0.02,WUHU216HW,2013-05-10 19:40:00,
2013-05-10 15:45:00,82.8,60.4,29.95,ESE,113,3.4,4.7,47,0.00,,,0.02,WUHU216HW,2013-05-10 19:45:00,
2013-05-10 15:50:00,82.8,61.0,29.95,SSE,158,2.7,3.4,48,0.00,,,0.02,WUHU216HW,2013-05-10 19:50:00,
2013-05-10 15:55:00,82.8,61.7,29.95,ESE,113,1.8,2.7,49,0.00,,,0.02,WUHU216HW,2013-05-10 19:55:00,
2013-05-10 16:00:00,83.2,62.6,29.95,East,90,0.7,2.5,50,0.00,,,0.02,WUHU216HW,2013-05-10 20:00:00,
2013-05-10 16:05:00,83.2,62.0,29.95,ESE,113,0.4,3.6,49,0.00,,,0.02,WUHU216HW,2013-05-10 20:05:00,
2013-05-10 16:10:00,83.0,61.2,29.94,WNW,293,0.7,6.0,48,0.00,,,0.02,WUHU216HW,2013-05-10 20:10:00,
2013-05-10 16:15:00,82.4,61.9,29.95,NNE,23,0.9,6.0,50,0.00,,,0.02,WUHU216HW,2013-05-10 20:15:00,
2013-05-10 16:20:00,82.1,61.6,29.95,East,90,0.7,3.1,50,0.00,,,0.02,WUHU216HW,2013-05-10 20:20:00,
2013-05-10 16:25:00,81.9,61.9,29.94,North,0,2.2,2.5,51,0.00,,,0.02,WUHU216HW,2013-05-10 20:25:00,
2013-05-10 16:30:00,81.2,61.8,29.95,NE,45,1.6,2.7,52,0.00,,,0.02,WUHU216HW,2013-05-10 20:30:00,
2013-05-10 16:35:00,81.0,62.2,29.94,ESE,113,1.1,2.7,53,0.00,,,0.02,WUHU216HW,2013-05-10 20:35:00,
2013-05-10 16:40:00,81.0,62.2,29.95,NE,45,0.9,2.0,53,0.00,,,0.02,WUHU216HW,2013-05-10 20:40:00,
2013-05-10 16:45:00,81.2,62.4,29.95,West,270,1.1,1.8,53,0.00,,,0.02,WUHU216HW,2013-05-10 20:45:00,
2013-05-10 16:50:00,81.4,62.0,29.95,SE,135,0.2,1.8,52,0.00,,,0.02,WUHU216HW,2013-05-10 20:50:00,
2013-05-10 16:55:00,81.7,62.3,29.95,ENE,68,0.4,1.8,52,0.00,,,0.02,WUHU216HW,2013-05-10 20:55:00,
2013-05-10 17:00:00,81.7,61.8,29.94,SW,225,4.5,4.5,51,0.00,,,0.02,WUHU216HW,2013-05-10 21:00:00,
2013-05-10 17:05:00,81.7,61.8,29.92,East,90,3.8,3.8,51,0.00,,,0.00,WUHU216HW,2013-05-10 21:05:00,
2013-05-10 17:10:00,81.4,59.1,29.94,NNW,338,0.9,4.0,47,0.00,,,0.02,WUHU216HW,2013-05-10 21:10:00,
2013-05-10 17:15:00,81.5,61.1,29.94,SE,135,2.0,3.1,50,0.00,,,0.02,WUHU216HW,2013-05-10 21:15:00,
2013-05-10 17:20:00,81.7,59.4,29.94,West,270,3.8,3.8,47,0.00,,,0.02,WUHU216HW,2013-05-10 21:20:00,
2013-05-10 17:25:00,81.4,59.8,29.94,East,90,1.1,3.8,48,0.00,,,0.02,WUHU216HW,2013-05-10 21:25:00,
2013-05-10 17:30:00,80.8,60.5,29.93,NW,315,0.0,5.6,50,0.00,,,0.02,WUHU216HW,2013-05-10 21:30:00,
2013-05-10 17:35:00,80.5,60.7,29.93,ESE,113,0.4,5.6,51,0.00,,,0.02,WUHU216HW,2013-05-10 21:35:00,
2013-05-10 17:40:00,80.1,60.3,29.93,East,90,1.1,4.0,51,0.00,,,0.02,WUHU216HW,2013-05-10 21:40:00,
2013-05-10 17:45:00,79.4,59.7,29.93,East,90,2.5,4.0,51,0.00,,,0.02,WUHU216HW,2013-05-10 21:45:00,
2013-05-10 17:50:00,78.8,60.2,29.93,SW,225,2.9,2.9,53,0.00,,,0.02,WUHU216HW,2013-05-10 21:50:00,
2013-05-10 17:55:00,78.7,59.6,29.92,South,180,1.8,2.9,52,0.00,,,0.02,WUHU216HW,2013-05-10 21:55:00,
2013-05-10 18:00:00,78.3,58.7,29.90,ESE,113,1.6,1.6,51,0.00,,,0.00,WUHU216HW,2013-05-10 22:00:00,
2013-05-10 18:01:00,78.3,58.7,29.90,ESE,113,1.6,1.6,51,0.00,,,0.00,WUHU216HW,2013-05-10 22:01:00,
2013-05-10 18:06:00,78.3,58.7,29.90,ESE,113,1.6,1.6,51,0.00,,,0.00,WUHU216HW,2013-05-10 22:06:00,
2013-05-10 18:15:00,77.6,58.1,29.93,East,90,1.8,3.4,51,0.00,,,0.02,WUHU216HW,2013-05-10 22:15:00,
2013-05-10 18:20:00,77.2,58.8,29.92,SE,135,2.7,3.4,53,0.00,,,0.02,WUHU216HW,2013-05-10 22:20:00,
2013-05-10 18:25:00,76.7,58.2,29.93,WNW,293,1.6,3.6,53,0.00,,,0.02,WUHU216HW,2013-05-10 22:25:00,
2013-05-10 18:30:00,76.5,58.1,29.93,ESE,113,2.5,3.6,53,0.00,,,0.02,WUHU216HW,2013-05-10 22:30:00,
2013-05-10 18:35:00,76.1,58.2,29.93,SSE,158,2.9,2.9,54,0.00,,,0.02,WUHU216HW,2013-05-10 22:35:00,
2013-05-10 18:40:00,76.0,58.2,29.93,North,0,0.0,2.9,54,0.00,,,0.02,WUHU216HW,2013-05-10 22:40:00,
2013-05-10 18:45:00,75.6,58.3,29.93,SE,135,1.8,2.7,55,0.00,,,0.02,WUHU216HW,2013-05-10 22:45:00,
2013-05-10 18:50:00,75.4,58.2,29.93,ENE,68,1.1,2.7,55,0.00,,,0.02,WUHU216HW,2013-05-10 22:50:00,
2013-05-10 18:55:00,75.2,58.5,29.93,NNE,23,0.4,2.5,56,0.00,,,0.02,WUHU216HW,2013-05-10 22:55:00,
2013-05-10 19:00:00,74.7,59.0,29.94,NNW,338,1.1,3.6,58,0.00,,,0.02,WUHU216HW,2013-05-10 23:00:00,
2013-05-10 19:05:00,72.7,59.8,29.95,NW,315,2.7,3.6,64,0.01,,,0.02,WUHU216HW,2013-05-10 23:05:00,
2013-05-10 19:10:00,70.2,59.5,29.95,NNW,338,1.1,3.4,69,0.02,,,0.02,WUHU216HW,2013-05-10 23:10:00,
2013-05-10 19:15:00,68.4,59.4,29.96,West,270,1.1,2.0,73,0.03,,,0.04,WUHU216HW,2013-05-10 23:15:00,
2013-05-10 19:20:00,67.7,60.7,29.96,NNW,338,1.1,2.0,78,0.04,,,0.06,WUHU216HW,2013-05-10 23:20:00,
2013-05-10 19:25:00,67.1,59.7,29.96,SW,225,0.0,1.1,77,0.04,,,0.06,WUHU216HW,2013-05-10 23:25:00,
2013-05-10 19:30:00,66.8,59.0,29.96,NNW,338,0.9,1.1,76,0.04,,,0.06,WUHU216HW,2013-05-10 23:30:00,
2013-05-10 19:35:00,66.6,59.1,29.96,West,270,0.0,1.3,77,0.04,,,0.06,WUHU216HW,2013-05-10 23:35:00,
2013-05-10 19:40:00,66.1,59.1,29.96,West,270,1.6,1.6,78,0.04,,,0.06,WUHU216HW,2013-05-10 23:40:00,
2013-05-10 19:45:00,65.9,60.0,29.97,ESE,113,0.9,1.6,81,0.04,,,0.06,WUHU216HW,2013-05-10 23:45:00,
2013-05-10 19:50:00,65.9,59.2,29.97,WSW,248,0.4,1.1,79,0.04,,,0.06,WUHU216HW,2013-05-10 23:50:00,
2013-05-10 19:55:00,65.7,59.4,29.96,WNW,293,0.4,1.1,80,0.04,,,0.06,WUHU216HW,2013-05-10 23:55:00,
2013-05-10 20:01:00,65.5,59.2,29.95,NW,315,0.4,0.9,80,0.04,,,0.06,WUHU216HW,2013-05-11 00:01:00,
2013-05-10 20:06:00,65.3,59.0,29.95,WNW,293,0.7,0.9,80,0.03,,,0.06,WUHU216HW,2013-05-11 00:06:00,
2013-05-10 20:11:00,65.2,58.9,29.96,WNW,293,0.7,0.9,80,0.02,,,0.06,WUHU216HW,2013-05-11 00:11:00,
2013-05-10 20:16:00,65.2,58.9,29.95,West,270,1.3,1.3,80,0.00,,,0.06,WUHU216HW,2013-05-11 00:16:00,
2013-05-10 20:21:00,65.2,58.5,29.96,WNW,293,1.6,1.8,79,0.00,,,0.06,WUHU216HW,2013-05-11 00:21:00,
2013-05-10 20:26:00,65.2,58.5,29.97,West,270,2.7,2.7,79,0.00,,,0.06,WUHU216HW,2013-05-11 00:26:00,
2013-05-10 20:31:00,65.2,58.5,29.97,WNW,293,2.7,3.4,79,0.00,,,0.06,WUHU216HW,2013-05-11 00:31:00,
2013-05-10 20:36:00,64.8,59.2,30.00,SW,225,1.8,4.0,82,0.02,,,0.06,WUHU216HW,2013-05-11 00:36:00,
2013-05-10 20:41:00,64.4,58.9,30.03,West,270,0.7,4.0,82,0.06,,,0.11,WUHU216HW,2013-05-11 00:41:00,
2013-05-10 20:46:00,64.1,58.8,30.03,NNE,23,1.8,4.0,83,0.12,,,0.17,WUHU216HW,2013-05-11 00:46:00,
2013-05-10 20:51:00,63.7,58.4,30.02,WNW,293,2.0,4.0,83,0.16,,,0.22,WUHU216HW,2013-05-11 00:51:00,
2013-05-10 20:56:00,63.4,58.4,30.01,NW,315,1.1,2.0,84,0.17,,,0.23,WUHU216HW,2013-05-11 00:56:00,
2013-05-10 21:01:00,63.2,58.6,30.01,WSW,248,0.0,1.8,85,0.18,,,0.24,WUHU216HW,2013-05-11 01:01:00,
2013-05-10 21:06:00,63.2,59.0,30.01,SSW,203,0.4,0.9,86,0.19,,,0.25,WUHU216HW,2013-05-11 01:06:00,
2013-05-10 21:11:00,63.2,59.0,30.01,ESE,113,1.1,1.1,86,0.20,,,0.26,WUHU216HW,2013-05-11 01:11:00,
2013-05-10 21:16:00,63.2,58.6,30.01,North,0,0.7,1.1,85,0.21,,,0.27,WUHU216HW,2013-05-11 01:16:00,
2013-05-10 21:21:00,63.0,59.4,30.01,ENE,68,1.1,1.1,88,0.22,,,0.28,WUHU216HW,2013-05-11 01:21:00,
2013-05-10 21:26:00,62.8,58.2,30.00,NNW,338,0.0,1.1,85,0.24,,,0.30,WUHU216HW,2013-05-11 01:26:00,
2013-05-10 21:30:00,62.8,58.6,29.97,SW,225,0.0,0.0,86,0.00,,,0.00,WUHU216HW,2013-05-11 01:30:00,
2013-05-10 21:31:00,62.6,58.8,30.00,SW,225,0.4,1.1,87,0.25,,,0.31,WUHU216HW,2013-05-11 01:31:00,
2013-05-10 21:36:00,62.6,58.4,29.99,ESE,113,0.0,0.4,86,0.21,,,0.32,WUHU216HW,2013-05-11 01:36:00,
2013-05-10 21:41:00,62.5,58.2,29.99,ESE,113,0.0,0.4,86,0.17,,,0.33,WUHU216HW,2013-05-11 01:41:00,
2013-05-10 21:46:00,62.3,57.7,29.99,ESE,113,0.0,0.0,85,0.13,,,0.33,WUHU216HW,2013-05-11 01:46:00,
2013-05-10 21:51:00,62.3,57.7,29.99,ESE,113,0.0,0.0,85,0.12,,,0.34,WUHU216HW,2013-05-11 01:51:00,
2013-05-10 21:56:00,62.3,58.4,29.99,ESE,113,0.0,0.0,87,0.10,,,0.34,WUHU216HW,2013-05-11 01:56:00,
2013-05-10 22:00:00,62.1,57.5,29.97,ESE,113,0.0,0.0,85,0.00,,,0.28,WUHU216HW,2013-05-11 02:00:00,
2013-05-10 22:01:00,62.1,57.5,30.00,ESE,113,0.0,0.0,85,0.09,,,0.34,WUHU216HW,2013-05-11 02:01:00,
2013-05-10 22:06:00,62.1,57.9,30.00,SSW,203,0.4,0.4,86,0.08,,,0.34,WUHU216HW,2013-05-11 02:06:00,
2013-05-10 22:11:00,61.9,57.7,30.00,SSW,203,0.0,0.4,86,0.07,,,0.34,WUHU216HW,2013-05-11 02:11:00,
2013-05-10 22:16:00,61.9,57.7,30.00,SSW,203,0.0,0.0,86,0.06,,,0.34,WUHU216HW,2013-05-11 02:16:00,
2013-05-10 22:21:00,61.9,57.7,29.99,SSW,203,0.0,0.0,86,0.05,,,0.34,WUHU216HW,2013-05-11 02:21:00,
2013-05-10 22:26:00,61.7,57.9,29.99,SSW,203,0.0,0.0,87,0.04,,,0.34,WUHU216HW,2013-05-11 02:26:00,
2013-05-10 22:30:00,61.7,57.9,29.97,SSW,203,0.0,0.0,87,0.04,,,0.32,WUHU216HW,2013-05-11 02:30:00,
2013-05-10 22:31:00,61.7,57.9,30.00,NE,45,0.2,0.4,87,0.03,,,0.34,WUHU216HW,2013-05-11 02:31:00,
2013-05-10 22:36:00,61.6,57.7,29.99,North,0,0.2,0.7,87,0.01,,,0.34,WUHU216HW,2013-05-11 02:36:00,
2013-05-10 22:41:00,61.6,57.7,29.99,NNW,338,1.1,1.8,87,0.01,,,0.34,WUHU216HW,2013-05-11 02:41:00,
2013-05-10 22:46:00,61.4,58.1,29.99,NNE,23,0.9,1.8,89,0.00,,,0.34,WUHU216HW,2013-05-11 02:46:00,
2013-05-10 22:51:00,61.2,57.3,29.99,North,0,0.4,1.1,87,0.00,,,0.34,WUHU216HW,2013-05-11 02:51:00,
2013-05-10 22:56:00,61.0,57.5,29.98,West,270,0.4,2.7,88,0.00,,,0.34,WUHU216HW,2013-05-11 02:56:00,
2013-05-10 23:00:00,61.0,57.2,29.96,North,0,0.7,0.7,87,0.00,,,0.32,WUHU216HW,2013-05-11 03:00:00,
2013-05-10 23:01:00,60.8,57.0,29.98,NNW,338,1.3,2.7,87,0.00,,,0.34,WUHU216HW,2013-05-11 03:01:00,
2013-05-10 23:06:00,60.8,57.0,29.98,NNW,338,0.4,1.3,87,0.00,,,0.34,WUHU216HW,2013-05-11 03:06:00,
2013-05-10 23:11:00,60.8,57.0,29.97,NNW,338,0.7,1.3,87,0.00,,,0.34,WUHU216HW,2013-05-11 03:11:00,
2013-05-10 23:16:00,60.8,57.0,29.97,WNW,293,0.4,1.1,87,0.00,,,0.34,WUHU216HW,2013-05-11 03:16:00,
2013-05-10 23:21:00,60.7,56.8,29.97,WNW,293,0.0,0.7,87,0.00,,,0.34,WUHU216HW,2013-05-11 03:21:00,
2013-05-10 23:26:00,60.7,56.8,29.97,WNW,293,0.4,0.7,87,0.00,,,0.34,WUHU216HW,2013-05-11 03:26:00,
2013-05-10 23:31:00,60.5,56.6,29.97,WNW,293,0.2,0.7,87,0.00,,,0.34,WUHU216HW,2013-05-11 03:31:00,
2013-05-10 23:36:00,60.5,57.0,29.97,WNW,293,0.0,0.7,88,0.00,,,0.34,WUHU216HW,2013-05-11 03:36:00,
2013-05-10 23:41:00,60.7,56.8,29.97,West,270,0.7,0.9,87,0.00,,,0.34,WUHU216HW,2013-05-11 03:41:00,
2013-05-10 23:46:00,60.5,56.6,29.96,WNW,293,0.7,0.9,87,0.00,,,0.34,WUHU216HW,2013-05-11 03:46:00,
2013-05-10 23:51:00,60.5,57.0,29.96,WNW,293,0.4,0.9,88,0.00,,,0.34,WUHU216HW,2013-05-11 03:51:00,
2013-05-10 23:56:00,60.5,57.0,29.96,WNW,293,0.4,0.7,88,0.00,,,0.34,WUHU216HW,2013-05-11 03:56:00,